Home   Weather   Siegen   Past weeks
Flag for Germany

Past Weather in Siegen, North Rhine-Westphalia, Germany — Yesterday and Last 2 Weeks

Now
54 °F

Fog.


Feels Like: 53 °F
Forecast: 66 / 48 °F
Wind: 5 mph from Southeast

Location: Koeln / Bonn

Current Time: May 19, 2019 at 8:40:47 am

Latest Report: May 19, 2019 at 7:50 am


Visibility: 2 mi

Pressure: 29.68 "Hg

Humidity: 94%

Dew Point: 52 °F

Location of SiegenLocation

Past Weather in Siegen — Graph

°F

Siegen Temperature Yesterday

Maximum temperature yesterday: 73 °F (at 3:50 pm)
Minimum temperature yesterday: 48 °F (at 12:50 am)
Average temperature yesterday: 60 °F

High & Low Weather Summary for the Past Weeks

 TemperatureHumidityPressure
High73 °F (May 18, 3:50 pm)100% (May 4, 11:20 pm)30.69 "Hg (May 4, 11:20 pm)
Low30 °F (May 5, 5:50 am)22% (May 15, 2:20 pm)29.45 "Hg (May 8, 5:20 pm)
Average50 °F71%30.02 "Hg
* Reported May 4 7:20 am — May 19 7:20 am, Siegen. Weather by CustomWeather, © 2019

Note: Actual official high and low records may vary slightly from our data, if they occured in-between our weather recording intervals... More about our weather records

Advertising

Siegen Weather History for the Previous 24 Hours

Scroll right to see more
 ConditionsComfort  
Time TempWeatherWind HumidityBarometerVisibility
7:20 am
Sun, May 19
52 °FFog.5 mph100%29.68 "Hg1 mi
6:50 am50 °FFog.3 mph100%29.68 "Hg2 mi
6:20 am52 °FFog.5 mph94%29.68 "Hg2 mi
5:50 am52 °FFog.5 mph94%29.68 "Hg3 mi
5:20 am52 °FClear.5 mph100%29.68 "Hg5 mi
4:50 am52 °FClear.3 mph100%29.68 "Hg6 mi
4:20 am54 °FClear.2 mph100%29.68 "Hg10 mi
3:50 am54 °FClear.2 mph94%29.68 "Hg10 mi
3:20 am55 °FClear.2 mph94%29.68 "Hg10 mi
2:50 am55 °FClear.1 mph94%29.68 "Hg10 mi
2:20 am55 °FClear.1 mph94%29.71 "Hg10 mi
1:50 am55 °FPassing clouds.3 mph94%29.71 "HgN/A
1:20 am55 °FClear.5 mph94%29.71 "Hg10 mi
12:50 am57 °FClear.3 mph88%29.71 "Hg10 mi
12:20 am57 °FClear.6 mph88%29.71 "Hg10 mi
11:50 pm
Sat, May 18
57 °FPassing clouds.3 mph88%29.71 "HgN/A
11:20 pm59 °FPassing clouds.5 mph88%29.71 "HgN/A
10:50 pm59 °FSprinkles. Passing clouds.2 mph88%29.71 "HgN/A
10:20 pm59 °FSprinkles. Passing clouds.3 mph94%29.71 "HgN/A
9:50 pm61 °FSprinkles. Passing clouds.1 mph83%29.71 "HgN/A
9:20 pm63 °FScattered showers. Passing clouds.9 mph73%29.71 "HgN/A
8:50 pm64 °FSprinkles. Scattered clouds.8 mph64%29.68 "HgN/A
8:20 pm66 °FSprinkles. Scattered clouds.7 mph60%29.68 "HgN/A
7:50 pm66 °FPassing clouds.3 mph60%29.68 "HgN/A
7:20 pm66 °FPassing clouds.3 mph64%29.68 "HgN/A
6:50 pm66 °FPassing clouds.3 mph64%29.68 "HgN/A
6:20 pm66 °FScattered showers. Passing clouds.5 mph60%29.68 "HgN/A
5:50 pm66 °FScattered showers. Passing clouds.2 mph60%29.68 "HgN/A
5:20 pm64 °FSprinkles. Scattered clouds.3 mph64%29.68 "HgN/A
4:50 pm66 °FRain showers. Scattered clouds.3 mph64%29.68 "HgN/A
4:20 pm70 °FRain showers. Scattered clouds.12 mph46%29.68 "HgN/A
3:50 pm73 °FRain showers. Passing clouds.3 mph44%29.68 "HgN/A
3:20 pm72 °FRain showers. Passing clouds.9 mph44%29.68 "HgN/A
2:50 pm72 °FPassing clouds.7 mph50%29.68 "HgN/A
2:20 pm70 °FPassing clouds.2 mph50%29.68 "HgN/A
1:50 pm68 °FPassing clouds.6 mph56%29.68 "HgN/A
1:20 pm70 °FPassing clouds.5 mph46%29.68 "HgN/A
12:50 pm68 °FPassing clouds.5 mph53%29.68 "HgN/A
12:20 pm68 °FPassing clouds.2 mph56%29.71 "HgN/A
11:50 am66 °FPassing clouds.5 mph60%29.71 "HgN/A
11:20 am66 °FSunny.3 mph56%29.71 "Hg10 mi
10:50 am64 °FSunny.3 mph60%29.71 "Hg10 mi
10:20 am63 °FPassing clouds.5 mph64%29.71 "HgN/A
9:50 am59 °FSunny.2 mph72%29.68 "Hg10 mi
9:20 am57 °FPassing clouds.3 mph77%29.71 "HgN/A
8:50 am55 °FPassing clouds.5 mph77%29.71 "HgN/A
8:20 am54 °FSunny.6 mph82%29.68 "Hg10 mi
Weather by CustomWeather, © 2019

See weather overview